Location: Newark
(41.8600°N, 14.8800°E)
Time: 21:50:47
(UTC+00:00)

Envisat - Visible Passes

Search period start: 11 November 2019 00:00
Search period end: 21 November 2019 00:00
Orbit: 764 x 766 km, 98.1° (Epoch: 11 November)

Date Brightness Start Highest point End Pass type
(mag) Time Alt. Az. Time Alt. Az. Time Alt. Az.
11 Nov 3.3 17:13:19 10° S 17:18:22 69° WSW 17:23:28 10° NNW visible
12 Nov 3.1 16:36:44 10° SSE 16:41:40 54° ENE 16:46:37 10° N visible
12 Nov 5.7 18:17:36 10° SW 18:21:00 18° W 18:24:25 10° NW visible
13 Nov 6.0 04:46:19 10° NE 04:49:47 18° E 04:53:14 10° SE visible
13 Nov 4.4 17:39:14 10° SSW 17:43:57 39° W 17:48:43 10° NNW visible
14 Nov 3.0 17:02:01 10° SSE 17:07:06 87° WSW 17:12:13 10° NNW visible
15 Nov 5.2 05:10:58 10° NNE 05:15:30 32° E 05:19:59 10° SSE visible
15 Nov 3.3 16:25:40 10° SE 16:30:26 43° ENE 16:35:14 10° N visible
15 Nov 5.4 18:05:40 10° SW 18:09:37 23° W 18:13:36 10° NW visible
16 Nov 6.1 04:35:41 10° ENE 04:38:23 14° E 04:41:04 10° ESE visible
16 Nov 3.9 17:27:43 10° S 17:32:38 50° W 17:37:34 10° NNW visible
17 Nov 2.9 16:50:47 10° SSE 16:55:50 75° ENE 17:00:56 10° N visible
17 Nov 6.1 18:33:12 10° WSW 18:35:24 13° W 18:37:36 10° WNW visible
18 Nov 5.6 04:59:58 10° NE 05:04:08 25° E 05:08:18 10° SSE visible
18 Nov 3.6 16:14:42 10° SE 16:19:14 34° ENE 16:23:48 10° N visible
18 Nov 5.0 17:53:56 10° SSW 17:58:15 28° W 18:02:38 10° NW visible
19 Nov 6.4 04:25:37 10° ENE 04:26:58 11° E 04:28:19 10° ESE visible
19 Nov 3.4 17:16:19 10° S 17:21:19 63° WSW 17:26:23 10° NNW visible
20 Nov 4.5 05:24:57 10° NNE 05:29:48 44° E 05:34:37 10° S visible
20 Nov 3.0 16:39:37 10° SSE 16:44:36 59° ENE 16:49:36 10° N visible
20 Nov 5.8 18:20:52 10° SW 18:23:59 16° W 18:27:09 10° NW visible
